This demonstration page uses our WeatherBlox Daily Observations layout. Learn more.

41.55636, -103.73856

Hourly Observations for January 27, 2019

Temp ( °F °C ) Dew Point ( °F °C ) Humidity (%) Winds ( mph kmh ) Pressure ( in mb ) Visibility ( mi km ) Precip ( " mm )
12:53 am 00:53 Clear 35 1.7 25 -3.9 67 67 WNW 13 20 30.06 1018 10 16.09344 0 0
1:53 am 01:53 Mostly Cloudy 38 3.3 26 -3.3 62 62 WNW 21 33 30.03 1017 10 16.09344 0 0
2:53 am 02:53 Cloudy 38 3.3 26 -3.3 62 62 WNW 20 31 30 1016 10 16.09344 0 0
3:53 am 03:53 Cloudy 39 3.9 27 -2.8 62 62 W 21 33 29.97 1015 10 16.09344 0 0
4:53 am 04:53 Cloudy 40 4.4 27 -2.8 60 60 WNW 20 31 29.97 1015 10 16.09344 0 0
5:53 am 05:53 Cloudy 40 4.4 27 -2.8 60 60 WNW 18 30 29.94 1014 10 16.09344 0 0
6:53 am 06:53 Cloudy 39 3.9 27 -2.8 62 62 W 16 26 29.94 1014 10 16.09344 0 0
7:53 am 07:53 Sunny 39 3.9 27 -2.8 62 62 WNW 14 22 29.91 1013 10 16.09344 0 0
8:53 am 08:53 Sunny 44 6.7 28 -2.2 53 53 W 18 30 29.88 1012 10 16.09344 0 0
9:53 am 09:53 Sunny 48 8.9 29 -1.7 48 48 W 25 41 29.85 1011 10 16.09344 0 0
10:53 am 10:53 Sunny 51 10.6 29 -1.7 43 43 W 32 52 29.8 1009 10 16.09344 0 0
11:53 am 11:53 Sunny 50 10 29 -1.7 44 44 W 23 37 29.77 1008 10 16.09344 0 0
12:53 pm 12:53 Sunny 54 12.2 29 -1.7 38 38 W 25 41 29.68 1005 10 16.09344 0 0
1:53 pm 13:53 Sunny 53 11.7 28 -2.2 38 38 W 36 57 29.62 1003 10 16.09344 0 0
2:53 pm 14:53 Mostly Sunny 53 11.7 27 -2.8 37 37 W 31 50 29.62 1003 10 16.09344 0 0
3:53 pm 15:53 Sunny 51 10.6 27 -2.8 39 39 WNW 30 48 29.62 1003 10 16.09344 0 0
4:53 pm 16:53 Cloudy 49 9.4 28 -2.2 44 44 WNW 23 37 29.62 1003 10 16.09344 0 0
5:53 pm 17:53 Mostly Cloudy 47 8.3 28 -2.2 48 48 WNW 26 43 29.65 1004 10 16.09344 0 0
6:53 pm 18:53 Mostly Cloudy 43 6.1 35 1.7 74 74 NNW 22 35 29.74 1007 10 16.09344 0 0
7:53 pm 19:53 Cloudy with Light Rain 38 3.3 34 1.1 86 86 NNW 13 20 29.83 1010 10 16.09344 0.001 0.001
8:20 pm 20:20 Cloudy with Light Rain 37 2.8 34 1.1 89 89 NW 24 39 29.88 1012 10 16.09344 0.001 0.001
8:29 pm 20:29 Cloudy 36 2.2 33 0.6 89 89 NW 20 31 29.91 1013 10 16.09344 0.001 0.001
8:53 pm 20:53 Cloudy 36 2.2 32 0 86 86 NW 15 24 29.85 1011 10 16.09344 0.001 0.001
9:53 pm 21:53 Mostly Cloudy 36 2.2 30 -1.1 79 79 WNW 15 24 29.85 1011 10 16.09344 0 0
10:53 pm 22:53 Mostly Cloudy 35 1.7 27 -2.8 72 72 WNW 17 28 29.88 1012 10 16.09344 0 0
11:53 pm 23:53 Cloudy 36 2.2 27 -2.8 70 70 NW 20 31 29.91 1013 10 16.09344 0 0

Powered by AerisWeather